QFA470 YMML-YSSY

Flight info

Callsign QFA470
Flight time N/A
Altitude 37000
Route YMML/34 3549S14734E NONUP Y59 RIVET
Aircraft A21N/M-SDE3FGHIRWY/LB1

Departure

Time N/A
Airport Melbourne Airport (YMML)

Arrival

Time 2026-05-01 07:57
Airport Sydney Kingsford Smith International Airport (YSSY)
Time Latitude Longitude Altitude Speed Heading
2026-05-01 07:23 -35.41112 148.33072 37364 ft 504 kts 46°
2026-05-01 07:24 -35.34742 148.43254 37363 ft 503 kts 45°
2026-05-01 07:24 -35.30499 148.50011 37363 ft 503 kts 45°
2026-05-01 07:25 -35.26241 148.56793 37363 ft 503 kts 45°
2026-05-01 07:25 -35.21991 148.63554 37364 ft 503 kts 45°
2026-05-01 07:26 -35.17744 148.70300 37362 ft 503 kts 45°
2026-05-01 07:26 -35.13484 148.77051 37363 ft 503 kts 45°
2026-05-01 07:27 -35.09205 148.83818 37362 ft 503 kts 45°
2026-05-01 07:27 -35.04928 148.90562 37362 ft 505 kts 45°
2026-05-01 07:28 -35.00616 148.97353 37363 ft 506 kts 46°
2026-05-01 07:28 -34.98457 149.00748 37255 ft 508 kts 46°
2026-05-01 07:28 -34.96276 149.04175 36954 ft 508 kts 46°
2026-05-01 07:28 -34.94133 149.07542 36521 ft 509 kts 46°
2026-05-01 07:29 -34.91951 149.10969 35901 ft 509 kts 46°
2026-05-01 07:29 -34.89792 149.14357 35195 ft 510 kts 46°
2026-05-01 07:29 -34.87584 149.17815 34540 ft 510 kts 46°
2026-05-01 07:29 -34.85409 149.21216 33707 ft 514 kts 47°
2026-05-01 07:30 -34.83184 149.24686 32865 ft 517 kts 47°
2026-05-01 07:30 -34.80992 149.28102 32061 ft 519 kts 47°
2026-05-01 07:30 -34.78763 149.31578 31245 ft 520 kts 47°
2026-05-01 07:30 -34.76535 149.35065 30423 ft 522 kts 49°
2026-05-01 07:31 -34.74440 149.38635 29600 ft 524 kts 53°
2026-05-01 07:31 -34.69104 149.50142 27819 ft 511 kts 60°
2026-05-01 07:32 -34.65832 149.57724 26761 ft 500 kts 60°
2026-05-01 07:32 -34.64222 149.61429 26237 ft 495 kts 60°
2026-05-01 07:33 -34.61019 149.68753 25186 ft 485 kts 59°
2026-05-01 07:33 -34.59441 149.72350 24664 ft 480 kts 60°
2026-05-01 07:33 -34.56336 149.79410 23628 ft 471 kts 60°
2026-05-01 07:34 -34.54791 149.82919 23107 ft 466 kts 60°
2026-05-01 07:34 -34.51762 149.89784 22085 ft 457 kts 60°
2026-05-01 07:34 -34.50256 149.93195 21588 ft 453 kts 60°
2026-05-01 07:35 -34.48775 149.96550 21086 ft 449 kts 60°
2026-05-01 07:35 -34.47309 149.99869 20577 ft 445 kts 60°
2026-05-01 07:35 -34.45842 150.03185 20062 ft 441 kts 60°
2026-05-01 07:35 -34.44394 150.06453 19551 ft 437 kts 60°
2026-05-01 07:36 -34.42962 150.09680 19042 ft 433 kts 60°
2026-05-01 07:36 -34.41557 150.12845 18539 ft 429 kts 60°
2026-05-01 07:36 -34.40149 150.16011 18035 ft 425 kts 61°
2026-05-01 07:36 -34.38758 150.19136 17534 ft 421 kts 61°
2026-05-01 07:37 -34.36004 150.25316 16526 ft 413 kts 61°
2026-05-01 07:37 -34.34640 150.28371 16023 ft 410 kts 61°
2026-05-01 07:37 -34.33284 150.31409 15520 ft 406 kts 61°
2026-05-01 07:38 -34.31942 150.34409 15019 ft 402 kts 61°
2026-05-01 07:38 -34.30622 150.37358 14523 ft 399 kts 61°
2026-05-01 07:38 -34.27998 150.43214 13527 ft 392 kts 61°
2026-05-01 07:39 -34.26711 150.46097 13030 ft 388 kts 62°
2026-05-01 07:39 -34.25431 150.48964 12537 ft 385 kts 62°
2026-05-01 07:39 -34.22909 150.54604 11556 ft 378 kts 61°
2026-05-01 07:40 -34.21675 150.57361 11076 ft 367 kts 61°
2026-05-01 07:40 -34.20471 150.60049 10650 ft 351 kts 61°
2026-05-01 07:40 -34.19357 150.62534 10490 ft 322 kts 60°
2026-05-01 07:40 -34.18324 150.64835 10330 ft 305 kts 60°
2026-05-01 07:41 -34.17321 150.67067 10180 ft 295 kts 59°
2026-05-01 07:41 -34.16356 150.69211 10046 ft 288 kts 59°
2026-05-01 07:41 -34.14457 150.73424 9530 ft 286 kts 59°
2026-05-01 07:42 -34.13500 150.75545 9177 ft 285 kts 59°
2026-05-01 07:42 -34.12551 150.77649 8832 ft 284 kts 59°
2026-05-01 07:42 -34.11608 150.79736 8490 ft 282 kts 58°
2026-05-01 07:42 -34.10663 150.81830 8146 ft 281 kts 58°
2026-05-01 07:43 -34.09730 150.83896 7920 ft 282 kts 58°
2026-05-01 07:43 -34.08789 150.85985 7944 ft 286 kts 58°
2026-05-01 07:43 -34.06869 150.90251 7990 ft 287 kts 59°
2026-05-01 07:44 -34.04959 150.94488 8002 ft 288 kts 59°
2026-05-01 07:44 -34.03188 150.98808 7988 ft 291 kts 76°
2026-05-01 07:45 -34.03275 151.01231 7993 ft 295 kts 108°
2026-05-01 07:45 -34.04354 151.03339 8009 ft 295 kts 133°
2026-05-01 07:45 -34.05783 151.05107 8024 ft 293 kts 137°
2026-05-01 07:45 -34.07246 151.06769 7918 ft 281 kts 144°
2026-05-01 07:46 -34.08890 151.07896 7724 ft 269 kts 160°
2026-05-01 07:46 -34.10675 151.08482 7474 ft 261 kts 168°
2026-05-01 07:46 -34.14255 151.09352 7219 ft 263 kts 168°
2026-05-01 07:47 -34.16048 151.09799 7022 ft 256 kts 168°
2026-05-01 07:47 -34.17765 151.10234 6767 ft 250 kts 167°
2026-05-01 07:47 -34.19415 151.10658 6480 ft 240 kts 167°
2026-05-01 07:47 -34.21042 151.11076 6195 ft 236 kts 167°
2026-05-01 07:48 -34.23945 151.12585 5542 ft 231 kts 129°
2026-05-01 07:48 -34.24594 151.14342 5139 ft 235 kts 98°
2026-05-01 07:48 -34.24565 151.16313 4750 ft 238 kts 85°
2026-05-01 07:49 -34.24345 151.18292 4352 ft 237 kts 83°
2026-05-01 07:49 -34.23847 151.22258 3548 ft 240 kts 83°
2026-05-01 07:49 -34.23411 151.24203 3141 ft 243 kts 62°
2026-05-01 07:50 -34.22250 151.25630 2993 ft 235 kts 30°
2026-05-01 07:50 -34.19249 151.26579 2979 ft 215 kts 360°
2026-05-01 07:50 -34.17878 151.25919 2964 ft 217 kts 315°
2026-05-01 07:51 -34.17047 151.24437 3077 ft 203 kts 301°
2026-05-01 07:51 -34.16123 151.23302 3004 ft 179 kts 335°
2026-05-01 07:51 -34.15041 151.22832 2974 ft 159 kts 349°
2026-05-01 07:52 -34.12965 151.22328 2996 ft 147 kts 353°
2026-05-01 07:52 -34.11946 151.22089 2996 ft 146 kts 352°
2026-05-01 07:52 -34.10950 151.21845 2890 ft 147 kts 352°
2026-05-01 07:53 -34.08959 151.21332 2500 ft 145 kts 351°
2026-05-01 07:53 -34.07979 151.21075 2308 ft 144 kts 351°
2026-05-01 07:53 -34.07003 151.20819 2117 ft 143 kts 351°
2026-05-01 07:53 -34.06027 151.20561 1926 ft 142 kts 351°
2026-05-01 07:54 -34.04108 151.20059 1550 ft 141 kts 351°
2026-05-01 07:55 -34.01250 151.19315 991 ft 138 kts 351°
2026-05-01 07:55 -33.99365 151.18825 622 ft 137 kts 351°
2026-05-01 07:56 -33.96583 151.18100 106 ft 135 kts 349°
2026-05-01 07:56 -33.94980 151.17686 22 ft 76 kts 349°
2026-05-01 07:57 -33.94629 151.17653 25 ft 21 kts
2026-05-01 07:57 -33.94507 151.17688 25 ft 2 kts 18°
2026-05-01 07:58 -33.94474 151.17702 25 ft 1 kts 18°
2026-05-01 07:58 -33.94403 151.17728 23 ft 9 kts 17°
2026-05-01 07:59 -33.94214 151.17699 17 ft 19 kts 346°
2026-05-01 07:59 -33.93899 151.17607 9 ft 23 kts 348°
2026-05-01 08:00 -33.93399 151.17592 13 ft 15 kts 356°
2026-05-01 08:01 -33.93189 151.17600 18 ft 4 kts 40°
2026-05-01 08:01 -33.93175 151.17613 19 ft 2 kts 50°
2026-05-01 08:01 -33.93170 151.17625 19 ft 1 kts 76°
2026-05-01 08:02 -33.93170 151.17631 19 ft 0 kts 89°